EJU53PB EHAM-LEZL

Flight info

Callsign EJU53PB
Flight time N/A
Altitude 35000
Route WOODY N872 CIV DCT KOVIN DCT DUCRA DCT RESMI DCT DEKOD DCT DISAK DCT ARKIP DCT ARNAV DCT LMG DCT UVELI DCT OSMOB DCT ARVID DCT PPN DCT NOLSA DCT ALEPO DCT VASUM DCT BANEV DCT BAN DCT GOTOR DCT KAMPO DCT MONTO DCT MOLIN DCT HIJ
Aircraft A320/M-SDE3FGHIRWY/LB1

Departure

Time N/A
Airport Amsterdam Airport Schiphol (EHAM)

Arrival

Time 2026-04-28 21:31
Airport Seville Airport (LEZL)
Time Latitude Longitude Altitude Speed Heading
2026-04-28 19:30 48.50127 2.17019 35069 ft 402 kts 195°
2026-04-28 19:30 48.47294 2.16104 35066 ft 402 kts 195°
2026-04-28 19:30 48.41921 2.14370 35077 ft 402 kts 195°
2026-04-28 19:31 48.36456 2.12613 35069 ft 401 kts 196°
2026-04-28 19:31 48.31008 2.10863 35060 ft 400 kts 195°
2026-04-28 19:32 48.25439 2.10612 35228 ft 407 kts 172°
2026-04-28 19:32 48.19812 2.11830 35103 ft 413 kts 177°
2026-04-28 19:33 48.14094 2.12918 35037 ft 413 kts 183°
2026-04-28 19:33 48.08442 2.12231 35034 ft 407 kts 192°
2026-04-28 19:34 48.02831 2.11140 35031 ft 407 kts 192°
2026-04-28 19:34 47.97218 2.10075 35022 ft 406 kts 192°
2026-04-28 19:35 47.91613 2.09017 35025 ft 406 kts 192°
2026-04-28 19:35 47.86092 2.07967 35027 ft 406 kts 192°
2026-04-28 19:36 47.80428 2.06886 34510 ft 406 kts 190°
2026-04-28 19:36 47.77623 2.06353 35047 ft 408 kts 192°
2026-04-28 19:36 47.74824 2.05823 35050 ft 404 kts 191°
2026-04-28 19:37 47.72043 2.05135 39494 ft 407 kts 193°
2026-04-28 19:37 47.70181 2.04644 39352 ft 413 kts 191°
2026-04-28 19:37 47.66336 2.03897 39229 ft 419 kts 189°
2026-04-28 19:37 47.63452 2.03292 39160 ft 417 kts 195°
2026-04-28 19:38 47.57971 2.00615 39020 ft 415 kts 203°
2026-04-28 19:38 47.52609 1.97498 38874 ft 413 kts 204°
2026-04-28 19:39 47.47311 1.94361 38746 ft 412 kts 204°
2026-04-28 19:39 47.41980 1.91250 38590 ft 412 kts 204°
2026-04-28 19:40 47.36641 1.88176 38407 ft 411 kts 204°
2026-04-28 19:40 47.31327 1.85132 38235 ft 409 kts 204°
2026-04-28 19:41 47.28677 1.83610 38093 ft 409 kts 204°
2026-04-28 19:41 47.26010 1.82082 37229 ft 415 kts 204°
2026-04-28 19:41 47.23301 1.80533 36432 ft 418 kts 204°
2026-04-28 19:41 47.20591 1.78985 35801 ft 417 kts 205°
2026-04-28 19:42 47.17888 1.77447 35237 ft 415 kts 205°
2026-04-28 19:42 47.15206 1.75933 34996 ft 412 kts 205°
2026-04-28 19:42 47.10730 1.73412 35000 ft 412 kts 205°
2026-04-28 19:43 47.04514 1.69916 35000 ft 412 kts 205°
2026-04-28 19:43 46.99163 1.66924 35001 ft 412 kts 205°
2026-04-28 19:44 46.93811 1.63938 34996 ft 412 kts 205°
2026-04-28 19:44 46.88458 1.60945 35018 ft 412 kts 205°
2026-04-28 19:45 46.83107 1.57955 35013 ft 412 kts 205°
2026-04-28 19:45 46.77758 1.54975 35008 ft 411 kts 205°
2026-04-28 19:46 46.72375 1.51994 35000 ft 411 kts 205°
2026-04-28 19:46 46.67023 1.49040 34998 ft 411 kts 205°
2026-04-28 19:47 46.61708 1.46092 34995 ft 411 kts 205°
2026-04-28 19:47 46.56316 1.43122 34995 ft 412 kts 205°
2026-04-28 19:48 46.50993 1.40189 34982 ft 412 kts 205°
2026-04-28 19:48 46.45640 1.37243 34992 ft 412 kts 205°
2026-04-28 19:49 46.40282 1.34308 34996 ft 412 kts 205°
2026-04-28 19:49 46.34924 1.31385 34986 ft 411 kts 205°
2026-04-28 19:50 46.26895 1.27015 34991 ft 410 kts 205°
2026-04-28 19:51 46.21555 1.24108 34991 ft 410 kts 205°
2026-04-28 19:51 46.16215 1.21206 34968 ft 410 kts 205°
2026-04-28 19:52 46.10870 1.18309 34985 ft 410 kts 205°
2026-04-28 19:52 46.05525 1.15423 34980 ft 410 kts 205°
2026-04-28 19:53 46.00149 1.12524 34994 ft 413 kts 205°
2026-04-28 19:53 45.94764 1.09629 34976 ft 413 kts 204°
2026-04-28 19:54 45.89393 1.06740 34971 ft 412 kts 204°
2026-04-28 19:54 45.84026 1.03857 34968 ft 411 kts 206°
2026-04-28 19:55 45.79191 0.99688 34967 ft 404 kts 222°
2026-04-28 19:55 45.74886 0.94502 34955 ft 405 kts 222°
2026-04-28 19:56 45.70554 0.89332 34971 ft 406 kts 221°
2026-04-28 19:56 45.66212 0.84154 34971 ft 406 kts 221°
2026-04-28 19:57 45.61870 0.78972 34970 ft 407 kts 221°
2026-04-28 19:57 45.57522 0.73800 34966 ft 407 kts 221°
2026-04-28 19:58 45.53169 0.68645 34962 ft 407 kts 221°
2026-04-28 19:58 45.48815 0.63488 34968 ft 407 kts 221°
2026-04-28 19:59 45.44455 0.58331 34965 ft 408 kts 221°
2026-04-28 19:59 45.40086 0.53185 34965 ft 408 kts 221°
2026-04-28 20:00 45.35719 0.48047 34955 ft 408 kts 221°
2026-04-28 20:00 45.31350 0.42912 34957 ft 408 kts 221°
2026-04-28 20:01 45.26976 0.37781 34973 ft 408 kts 221°
2026-04-28 20:01 45.22597 0.32659 34974 ft 408 kts 221°
2026-04-28 20:02 45.18216 0.27544 34955 ft 408 kts 221°
2026-04-28 20:02 45.13831 0.22442 34953 ft 408 kts 221°
2026-04-28 20:03 45.09438 0.17339 34960 ft 409 kts 221°
2026-04-28 20:03 45.05783 0.13098 34963 ft 409 kts 221°
2026-04-28 20:04 45.01355 0.07963 34960 ft 409 kts 221°
2026-04-28 20:04 44.96951 0.02869 34937 ft 409 kts 220°
2026-04-28 20:05 44.92530 -0.02221 34959 ft 411 kts 221°
2026-04-28 20:05 44.88103 -0.07316 34964 ft 411 kts 221°
2026-04-28 20:06 44.83672 -0.12400 34969 ft 411 kts 221°
2026-04-28 20:06 44.79242 -0.17472 34969 ft 410 kts 221°
2026-04-28 20:07 44.74816 -0.22543 34964 ft 410 kts 221°
2026-04-28 20:07 44.70384 -0.27608 34964 ft 411 kts 221°
2026-04-28 20:08 44.65942 -0.32651 34966 ft 411 kts 219°
2026-04-28 20:08 44.60988 -0.36717 34955 ft 414 kts 210°
2026-04-28 20:09 44.55881 -0.40461 34952 ft 414 kts 210°
2026-04-28 20:09 44.50776 -0.44222 34953 ft 415 kts 210°
2026-04-28 20:10 44.45666 -0.47974 34957 ft 415 kts 210°
2026-04-28 20:10 44.40554 -0.51713 34937 ft 415 kts 210°
2026-04-28 20:11 44.35436 -0.55447 34940 ft 415 kts 210°
2026-04-28 20:11 44.30348 -0.59156 34945 ft 415 kts 210°
2026-04-28 20:12 44.25220 -0.62886 34949 ft 416 kts 210°
2026-04-28 20:12 44.20091 -0.66618 34940 ft 416 kts 210°
2026-04-28 20:13 44.14952 -0.70344 34945 ft 417 kts 210°
2026-04-28 20:13 44.09807 -0.74055 34946 ft 416 kts 210°
2026-04-28 20:14 44.04666 -0.77761 34961 ft 416 kts 210°
2026-04-28 20:14 43.99526 -0.81477 34945 ft 417 kts 210°
2026-04-28 20:15 43.94378 -0.85178 34945 ft 417 kts 210°
2026-04-28 20:15 43.89227 -0.88879 34949 ft 417 kts 210°
2026-04-28 20:16 43.84074 -0.92561 34955 ft 417 kts 210°
2026-04-28 20:16 43.78914 -0.96236 34931 ft 417 kts 210°
2026-04-28 20:17 43.73751 -0.99916 34929 ft 418 kts 210°
2026-04-28 20:17 43.68586 -1.03604 34934 ft 418 kts 210°
2026-04-28 20:18 43.63680 -1.07809 34954 ft 413 kts 221°
2026-04-28 20:18 43.59258 -1.12858 34948 ft 412 kts 221°
2026-04-28 20:19 43.55039 -1.18176 34944 ft 411 kts 231°
2026-04-28 20:19 43.51897 -1.24735 34935 ft 411 kts 239°
2026-04-28 20:20 43.48286 -1.30797 34931 ft 414 kts 218°
2026-04-28 20:20 43.43183 -1.34554 34928 ft 418 kts 208°
2026-04-28 20:21 43.37965 -1.38091 34916 ft 419 kts 209°
2026-04-28 20:21 43.32769 -1.41725 34922 ft 419 kts 210°
2026-04-28 20:22 43.27570 -1.45378 34925 ft 420 kts 210°
2026-04-28 20:22 43.22356 -1.49027 34928 ft 421 kts 210°
2026-04-28 20:23 43.17101 -1.52591 34916 ft 422 kts 207°
2026-04-28 20:23 43.11712 -1.55838 34925 ft 424 kts 206°
2026-04-28 20:24 43.06289 -1.59005 34929 ft 424 kts 206°
2026-04-28 20:24 43.00931 -1.62234 34923 ft 424 kts 207°
2026-04-28 20:25 42.95547 -1.65519 34921 ft 424 kts 206°
2026-04-28 20:25 42.90156 -1.68797 34921 ft 424 kts 206°
2026-04-28 20:26 42.84763 -1.72063 34905 ft 424 kts 206°
2026-04-28 20:26 42.79366 -1.75317 34907 ft 424 kts 206°
2026-04-28 20:27 42.73971 -1.78563 34910 ft 424 kts 206°
2026-04-28 20:27 42.68576 -1.81810 34913 ft 424 kts 204°
2026-04-28 20:28 42.63177 -1.85051 34913 ft 424 kts 206°
2026-04-28 20:28 42.57778 -1.88290 34898 ft 424 kts 206°
2026-04-28 20:29 42.52378 -1.91518 34913 ft 424 kts 206°
2026-04-28 20:29 42.46972 -1.94743 34913 ft 424 kts 206°
2026-04-28 20:30 42.41568 -1.97962 34917 ft 424 kts 206°
2026-04-28 20:30 42.36165 -2.01181 34903 ft 424 kts 207°
2026-04-28 20:31 42.30757 -2.04390 34908 ft 424 kts 207°
2026-04-28 20:31 42.25348 -2.07593 34903 ft 424 kts 207°
2026-04-28 20:32 42.19938 -2.10790 34907 ft 424 kts 207°
2026-04-28 20:32 42.14528 -2.13980 34905 ft 425 kts 207°
2026-04-28 20:33 42.09109 -2.17173 34908 ft 425 kts 207°
2026-04-28 20:33 42.03687 -2.20363 34912 ft 425 kts 207°
2026-04-28 20:34 41.98266 -2.23546 34914 ft 425 kts 207°
2026-04-28 20:34 41.92842 -2.26720 34897 ft 425 kts 207°
2026-04-28 20:35 41.87414 -2.29888 34915 ft 425 kts 207°
2026-04-28 20:35 41.81991 -2.33051 34918 ft 425 kts 207°
2026-04-28 20:36 41.76574 -2.36203 34923 ft 424 kts 207°
2026-04-28 20:36 41.71203 -2.39331 34916 ft 423 kts 207°
2026-04-28 20:37 41.65766 -2.42487 34911 ft 423 kts 207°
2026-04-28 20:37 41.60409 -2.45590 34909 ft 422 kts 207°
2026-04-28 20:38 41.55016 -2.48714 34908 ft 422 kts 207°
2026-04-28 20:38 41.49627 -2.51832 34895 ft 422 kts 207°
2026-04-28 20:39 41.44322 -2.55148 34902 ft 421 kts 209°
2026-04-28 20:39 41.39082 -2.58614 34914 ft 420 kts 209°
2026-04-28 20:40 41.33828 -2.62044 34911 ft 421 kts 209°
2026-04-28 20:40 41.28899 -2.66144 34901 ft 418 kts 217°
2026-04-28 20:41 41.24120 -2.70552 34898 ft 419 kts 216°
2026-04-28 20:41 41.19336 -2.74969 34904 ft 419 kts 216°
2026-04-28 20:42 41.14542 -2.79382 34909 ft 420 kts 216°
2026-04-28 20:42 41.09735 -2.83778 34909 ft 420 kts 216°
2026-04-28 20:43 41.04915 -2.88174 34897 ft 421 kts 216°
2026-04-28 20:43 41.00082 -2.92590 34898 ft 422 kts 216°
2026-04-28 20:44 40.95245 -2.97000 34894 ft 423 kts 216°
2026-04-28 20:44 40.90394 -3.01409 34900 ft 423 kts 216°
2026-04-28 20:45 40.85538 -3.05820 34896 ft 424 kts 216°
2026-04-28 20:45 40.80672 -3.10228 34896 ft 424 kts 216°
2026-04-28 20:46 40.75803 -3.14640 34896 ft 425 kts 216°
2026-04-28 20:46 40.70929 -3.19041 34903 ft 425 kts 216°
2026-04-28 20:47 40.66048 -3.23435 34900 ft 425 kts 216°
2026-04-28 20:47 40.61994 -3.27084 34895 ft 425 kts 216°
2026-04-28 20:48 40.57113 -3.31472 34909 ft 425 kts 216°
2026-04-28 20:48 40.52231 -3.35854 34907 ft 425 kts 216°
2026-04-28 20:49 40.47348 -3.40225 34909 ft 425 kts 216°
2026-04-28 20:49 40.42462 -3.44587 34917 ft 424 kts 216°
2026-04-28 20:50 40.37586 -3.48937 34916 ft 424 kts 215°
2026-04-28 20:50 40.32713 -3.53274 34915 ft 423 kts 215°
2026-04-28 20:51 40.27849 -3.57604 34923 ft 422 kts 215°
2026-04-28 20:51 40.22989 -3.61923 34915 ft 422 kts 215°
2026-04-28 20:52 40.18125 -3.66234 34909 ft 422 kts 215°
2026-04-28 20:52 40.13256 -3.70532 34912 ft 422 kts 215°
2026-04-28 20:53 40.05946 -3.76961 34882 ft 422 kts 215°
2026-04-28 20:53 40.01077 -3.81256 34897 ft 422 kts 215°
2026-04-28 20:54 39.96208 -3.85546 34897 ft 422 kts 214°
2026-04-28 20:54 39.91334 -3.89818 34886 ft 423 kts 214°
2026-04-28 20:55 39.86449 -3.94089 34886 ft 423 kts 214°
2026-04-28 20:55 39.81560 -3.98359 34888 ft 423 kts 214°
2026-04-28 20:56 39.76662 -4.02627 34888 ft 423 kts 214°
2026-04-28 20:56 39.71772 -4.06893 34882 ft 424 kts 214°
2026-04-28 20:57 39.66873 -4.11165 34887 ft 425 kts 214°
2026-04-28 20:57 39.61957 -4.15432 34890 ft 425 kts 214°
2026-04-28 20:58 39.57030 -4.19690 34907 ft 426 kts 214°
2026-04-28 20:58 39.52104 -4.23955 34908 ft 426 kts 214°
2026-04-28 20:59 39.47169 -4.28214 34881 ft 427 kts 214°
2026-04-28 20:59 39.42214 -4.32482 34900 ft 428 kts 214°
2026-04-28 21:00 39.37254 -4.36755 34903 ft 429 kts 214°
2026-04-28 21:00 39.32288 -4.41032 34905 ft 429 kts 214°
2026-04-28 21:01 39.27346 -4.45265 34907 ft 429 kts 214°
2026-04-28 21:01 39.22355 -4.49524 34894 ft 431 kts 214°
2026-04-28 21:02 39.17357 -4.53792 34895 ft 432 kts 214°
2026-04-28 21:02 39.12348 -4.58076 34897 ft 432 kts 214°
2026-04-28 21:03 39.07330 -4.62352 34907 ft 432 kts 213°
2026-04-28 21:03 39.02312 -4.66616 34904 ft 432 kts 213°
2026-04-28 21:04 38.97292 -4.70875 34905 ft 432 kts 213°
2026-04-28 21:04 38.92268 -4.75127 34904 ft 432 kts 213°
2026-04-28 21:05 38.88594 -4.78239 34904 ft 432 kts 213°
2026-04-28 21:05 38.83569 -4.82493 34907 ft 433 kts 213°
2026-04-28 21:06 38.78536 -4.86733 34908 ft 433 kts 213°
2026-04-28 21:06 38.73501 -4.90963 34911 ft 433 kts 213°
2026-04-28 21:07 38.68468 -4.95192 34911 ft 433 kts 213°
2026-04-28 21:07 38.63507 -4.99356 34764 ft 432 kts 212°
2026-04-28 21:08 38.60973 -5.01476 33781 ft 439 kts 212°
2026-04-28 21:08 38.58398 -5.03632 32677 ft 445 kts 212°
2026-04-28 21:08 38.55799 -5.05805 31663 ft 449 kts 212°
2026-04-28 21:08 38.53176 -5.07995 30670 ft 452 kts 212°
2026-04-28 21:09 38.50416 -5.09938 29617 ft 455 kts 204°
2026-04-28 21:09 38.47434 -5.11316 28439 ft 457 kts 197°
2026-04-28 21:09 38.44380 -5.12506 27226 ft 461 kts 197°
2026-04-28 21:09 38.41304 -5.13704 26039 ft 464 kts 198°
2026-04-28 21:10 38.38230 -5.14904 25366 ft 458 kts 198°
2026-04-28 21:10 38.35197 -5.16088 24510 ft 455 kts 198°
2026-04-28 21:10 38.32158 -5.17277 23376 ft 458 kts 198°
2026-04-28 21:10 38.29112 -5.18469 22302 ft 457 kts 198°
2026-04-28 21:11 38.26089 -5.19652 21384 ft 453 kts 198°
2026-04-28 21:11 38.23098 -5.20850 20501 ft 448 kts 200°
2026-04-28 21:11 38.20207 -5.22294 19660 ft 445 kts 202°
2026-04-28 21:11 38.17358 -5.23785 18850 ft 441 kts 203°
2026-04-28 21:12 38.14537 -5.25299 18072 ft 438 kts 203°
2026-04-28 21:12 38.11744 -5.26816 17230 ft 435 kts 204°
2026-04-28 21:12 38.08978 -5.28321 16442 ft 431 kts 204°
2026-04-28 21:12 38.06233 -5.29807 15701 ft 427 kts 203°
2026-04-28 21:13 38.03510 -5.31267 14936 ft 424 kts 203°
2026-04-28 21:13 38.00807 -5.32707 14292 ft 418 kts 202°
2026-04-28 21:13 37.98143 -5.34122 13715 ft 412 kts 202°
2026-04-28 21:13 37.95522 -5.35511 13085 ft 405 kts 202°
2026-04-28 21:14 37.92941 -5.36876 12458 ft 398 kts 202°
2026-04-28 21:14 37.90403 -5.38218 11832 ft 393 kts 202°
2026-04-28 21:14 37.87899 -5.39544 11195 ft 388 kts 202°
2026-04-28 21:14 37.85451 -5.40845 10970 ft 372 kts 203°
2026-04-28 21:15 37.83118 -5.42084 10850 ft 355 kts 203°
2026-04-28 21:15 37.80894 -5.43265 10721 ft 339 kts 202°
2026-04-28 21:15 37.78760 -5.44397 10601 ft 325 kts 202°
2026-04-28 21:15 37.76713 -5.45480 10478 ft 313 kts 202°
2026-04-28 21:16 37.74742 -5.46521 10362 ft 301 kts 202°
2026-04-28 21:16 37.72840 -5.47522 10219 ft 292 kts 202°
2026-04-28 21:16 37.70986 -5.48497 10050 ft 285 kts 202°
2026-04-28 21:16 37.69154 -5.49460 9968 ft 285 kts 202°
2026-04-28 21:17 37.67325 -5.50424 9761 ft 286 kts 203°
2026-04-28 21:17 37.65468 -5.51394 9286 ft 288 kts 200°
2026-04-28 21:17 37.63595 -5.52119 8942 ft 285 kts 196°
2026-04-28 21:17 37.61698 -5.52824 8541 ft 283 kts 196°
2026-04-28 21:18 37.59812 -5.53527 8141 ft 282 kts 196°
2026-04-28 21:18 37.57893 -5.54245 7383 ft 293 kts 196°
2026-04-28 21:18 37.55910 -5.54988 6618 ft 298 kts 195°
2026-04-28 21:18 37.53929 -5.55726 5840 ft 296 kts 195°
2026-04-28 21:19 37.51961 -5.56455 5121 ft 293 kts 195°
2026-04-28 21:19 37.50045 -5.57164 4657 ft 281 kts 195°
2026-04-28 21:19 37.48193 -5.57855 4189 ft 274 kts 196°
2026-04-28 21:19 37.46375 -5.58533 3515 ft 271 kts 197°
2026-04-28 21:20 37.44641 -5.59179 3347 ft 247 kts 197°
2026-04-28 21:20 37.43083 -5.59846 3169 ft 230 kts 207°
2026-04-28 21:20 37.41912 -5.61114 3026 ft 221 kts 242°
2026-04-28 21:20 37.41631 -5.62947 2883 ft 213 kts 273°
2026-04-28 21:21 37.41700 -5.64757 2874 ft 200 kts 271°
2026-04-28 21:21 37.41725 -5.66460 2864 ft 190 kts 269°
2026-04-28 21:21 37.41755 -5.68087 2869 ft 184 kts 272°
2026-04-28 21:21 37.41777 -5.69721 2822 ft 190 kts 269°
2026-04-28 21:22 37.41794 -5.71418 2646 ft 199 kts 269°
2026-04-28 21:22 37.41854 -5.73190 2368 ft 206 kts 268°
2026-04-28 21:22 37.41865 -5.75006 2078 ft 208 kts 266°
2026-04-28 21:22 37.41855 -5.76209 1896 ft 207 kts 265°
2026-04-28 21:23 37.41827 -5.78589 1400 ft 198 kts 266°
2026-04-28 21:23 37.41825 -5.80225 1287 ft 177 kts 266°
2026-04-28 21:23 37.41835 -5.81688 1096 ft 162 kts 266°
2026-04-28 21:23 37.41847 -5.83084 1539 ft 164 kts 266°
2026-04-28 21:24 37.41879 -5.84557 1651 ft 169 kts 268°
2026-04-28 21:24 37.41891 -5.86033 1474 ft 173 kts 265°
2026-04-28 21:24 37.41851 -5.87713 1362 ft 200 kts 264°
2026-04-28 21:24 37.41795 -5.89399 1407 ft 183 kts 265°
2026-04-28 21:25 37.41819 -5.90935 1418 ft 170 kts 270°
2026-04-28 21:25 37.41921 -5.92383 1456 ft 165 kts 275°
2026-04-28 21:25 37.42443 -5.93723 1470 ft 184 kts 311°
2026-04-28 21:25 37.43589 -5.94535 1509 ft 200 kts 345°
2026-04-28 21:26 37.45002 -5.94505 1571 ft 209 kts 15°
2026-04-28 21:26 37.46273 -5.93650 1612 ft 209 kts 45°
2026-04-28 21:26 37.47038 -5.92148 1623 ft 204 kts 79°
2026-04-28 21:26 37.47001 -5.90416 1615 ft 199 kts 109°
2026-04-28 21:27 37.46598 -5.88754 1609 ft 199 kts 109°
2026-04-28 21:27 37.46429 -5.87014 1594 ft 201 kts 95°
2026-04-28 21:27 37.46440 -5.85256 1607 ft 200 kts 93°
2026-04-28 21:27 37.46461 -5.83518 1577 ft 197 kts 94°
2026-04-28 21:28 37.46454 -5.81821 1587 ft 188 kts 95°
2026-04-28 21:28 37.46185 -5.80326 1526 ft 166 kts 127°
2026-04-28 21:28 37.45351 -5.79489 1420 ft 149 kts 167°
2026-04-28 21:28 37.44338 -5.79364 1293 ft 147 kts 179°
2026-04-28 21:29 37.43329 -5.79368 1197 ft 142 kts 182°
2026-04-28 21:29 37.42401 -5.79677 1131 ft 139 kts 211°
2026-04-28 21:29 37.41784 -5.80637 1066 ft 150 kts 252°
2026-04-28 21:29 37.41798 -5.81983 892 ft 156 kts 272°
2026-04-28 21:30 37.41814 -5.83296 735 ft 147 kts 268°
2026-04-28 21:30 37.41812 -5.84576 525 ft 147 kts 267°
2026-04-28 21:30 37.41801 -5.85858 370 ft 147 kts 269°
2026-04-28 21:30 37.41801 -5.87145 192 ft 146 kts 268°
2026-04-28 21:31 37.41794 -5.88367 106 ft 124 kts 269°
2026-04-28 21:31 37.41794 -5.89235 100 ft 75 kts 270°
2026-04-28 21:31 37.41792 -5.89679 98 ft 31 kts 270°
2026-04-28 21:31 37.41862 -5.89812 97 ft 17 kts 333°
2026-04-28 21:32 37.41928 -5.89845 98 ft 15 kts 339°
2026-04-28 21:32 37.42008 -5.89888 96 ft 10 kts 335°
2026-04-28 21:32 37.42081 -5.89932 95 ft 6 kts 319°
2026-04-28 21:32 37.42109 -5.89971 94 ft 6 kts 311°
2026-04-28 21:33 37.42134 -5.90003 94 ft 5 kts 315°
2026-04-28 21:33 37.42148 -5.90021 94 ft 4 kts 314°
2026-04-28 21:33 37.42155 -5.90030 94 ft 0 kts 315°